User: anonymous
Location: Caltech
(34.1382°N, 118.1253°W)
Time: 17:55:54
(UTC-07:00)
Language:

SPOT 1/Viking Rocket - Orbit

View from above orbital plane
View from above orbital plane
View from above satellite
View from above satellite

Ground track
Ground track

The orbit data is extracted from the following two-line orbital elements,

1 16615U 86019C   14210.27525067  .00000090  00000-0  51190-4 0  4461
2 16615 098.7550 261.7267 0010845 259.2590 142.5099 14.31284155488718
Epoch (UTC): 29 July 2014 06:36:21
Eccentricity: 0.0010845
inclination: 98.7550°
perigee height: 779 km
apogee height: 795 km
right ascension of ascending node: 261.7267°
argument of perigee: 259.2590°
revolutions per day: 14.31284155
mean anomaly at epoch: 142.5099°
orbit number at epoch: 48871

The dashed part of the orbit path shows where the satellite is in the earth's shadow,  

DLR